STARLINK-32763 (62750 NORAD) Tracking and Keplerian Element Data

This shows tracking and keplerian element data for the satellite.

Feedback or suggestion? Click here.




ElementValue
Catalog62750
NameSTARLINK-32763
Epoch Orbit221
Epoch Day35.25001157
Epoch Year2025
RAAN253.8217
Inclination42.9996
Eccentricity0.0001777
Argument of Perigee279.6588
Mean Anonmoly106.7892
Mean Motion15.64346409
Decay Rate-0.014873
L11 62750U 25014R 25035.25001157 -.01487300 00000+0 -16891-1 0 9998
L22 62750 42.9996 253.8217 0001777 279.6588 106.7892 15.64346409 2216



Live tracking and technical data element details for STARLINK-32763 (NORAD 62750). STARLINK-32763 can be tracked NOW for your location showing map with azimuth and elevation plus other details from your city location.







IsCatalogInMostPopularTable: catalog: 62750, numindb: 3
Update: records affected: 1



GetName: 62750 STARLINK-32763

Hit Count: updated at: Sun, 09 Feb 2025 15:00:16 GMT